Probability
0 0 0 0 0 0 0 0 0 0 0 0 0 0 0 0 0 0 0 0 0 0 0 0 0 0 0 0 0 0 0 0 0 0 0 0 0 0 0 0 0 0 0
0 0 0 0 0 0 0 0 0 0 0 0 0 0 0 0 0 0 0 0 0 0 0 0 0 0 0 0 0 0 0 0 0 0 0 0 0 0 0 0 0 0 0
0 0 0 0 0 0 0 0 0 0 0 0 0 0 0 0 0 0 0 0 0 0 0 0 0 0 0 0 0 0 0 0 0 0 0 0 0 0 0 0 0 0 0
0 0 0 0 0 0 0 0 0 0 0 0 0 0 0 0 0 0 0 0 0 0 0 0 0 0 0 0 0 0 0 0 0 0 0 0 0 0 0 0 0 0 0
0 0 0 0 0 0 0 0 0 0 0 0 0 0 0 0 0 0 0 0 0 0 0 0 0 0 0 0 0 0 0 0 0 0 0 0 0 0 0 0 0 0 0
0 0 0 0 0 0 0 0 0 0 0 0 0 0 0 0 0 0 0 0 0 0 0 0 0 0 0 0 0 0 0 0 0 0 0 0 0 0 0 0 0 0 0
0 0 0 0 0 0 0 0 0 0 0 0 0 0 0 0 0 0 0 0 0 0 0 0 0 0 0 0 0 0 0 0 0 0 0 0 0 0 0 0 0 0 0
0 0 0 0 0 0 0 0 0 0 0 0 0 0 0 0 0 0 0 0 0 0 0 0 0 0 0 0 0 0 0 0 0 0 0 0 0 0 0 0 0 0 0
0 0 0 0 0 0 0 0 0 0 0 0 0 0 0 0 0 0 0 0 0 0 0 0 0 0 0 0 0 0 0 0 0 0 0 0 0 0 0 0 0 0 0
0 0 0 0 0 0 0 0 0 0 0 0 0 0 0 0 0 0 0 0 0 0 0 0 0 0 0 0 0 0 0 0 0 0 0 0 0 0 0 0 0 0 0
0 0 0 0 0 0 0 0 0 0 0 0 0 0 0 0 0 0 0 0 0 0 0 0 0 0 0 0 0 0 0 0 0 0 0 0 0 0 0 0 0 0 0
0 0 0 0 0 0 0 0 0 0 0 0 0 0 0 0 0 0 0 0 0 0 0 0 0 0 0 0 0 0 0 0 0 0 0 0 0 0 0 0 0 0 0
0 0 0 0 0 0 0 0 0 0 0 0 0 0 0 0 0 0 0 0 0 0 0 0 0 0 0 0 0 0 0 0 0 0 0 0 0 0 0 0 0 0 0
0 0 0 0 0 0 0 0 0 0 0 0 0 0 0 0 0 0 0 0 0 0 0 0 0 0 0 0 0 0 0 0 0 0 0 0 0 0 0 0 0 0 0
0 0 0 0 0 0 0 0 0 0 0 0 0 0 0 0 0 0 0 0 0 0 0 0 0 0 0 0 0 0 0 0 0 0 0 0 0 0 0 0 0 0 0
0 0 0 0 0 0 0 0 0 0 0 0 0 0 0 0 0 0 0 0 0 0 0 0 0 0 0 0 0 0 0 0 0 0 0 0 0 0 0 0 0 0 0
0 0 0 0 0 0 0 0 0 0 0 0 0 0 0 0 0 0 0 0 0 0 0 0 0 0 0 0 0 0 0 0 0 0 0 0 0 0 0 0 0 0 0
0 0 0 0 0 0 0 0 0 0 0 0 0 0 0 0 0 0 0 0 0 0 0 0 0 0 0 0 0 0 0 0 0 0 0 0 0 0 0 0 0 0 0
0 0 0 0 0 0 0 0 0 0 0 0 0 0 0 0 0 0 0 0 0 0 0 0 0 0 0 0 0 0 0 0 0 0 0 0 0 0 0 0 0 0 0
0 0 0 0 0 0 0 0 0 0 0 0 0 0 0 0 0 0 0 0 0 0 0 0 0 0 0 0 0 0 0 0 0 0 0 0 0 0 0 0 0 0 0
0 0 0 0 0 0 0 0 0 0 0 0 0 0 0 0 0 0 0 0 0 0 0 0 0 0 0 0 0 0 0 0 0 0 0 0 0 0 0 0 0 0 0
0 0 0 0 0 0 0 0 0 0 0 0 0 0 0 0 0 0 0 0 0 0 0 0 0 0 0 0 0 0 0 0 0 0 0 0 0 0 0 0 0 0 0
0 0 0 0 0 0 0 0 0 0 0 0 0 0 0 0 0 0 0 0 0 0 0 0 0 0 0 0 0 0 0 0 0 0 0 0 0 0 0 0 0 0 0
0 0 0 0 0 0 0 0 0 0 0 0 0 0 0 0 0 0 0 0 0 0 0 0 0 0 0 0 0 0 0 0 0 0 0 0 0 0 0 0 0 0 0
0 0 0 0 0 0 0 0 0 0 0 0 0 0 0 0 0 0 0 0 0 0 0 0 0 0 0 0 0 0 0 0 0 0 0 0 0 0 0 0 0 0 0
0 0 0 0 0 0 0 0 0 0 0 0 0 0 0 0 0 0 0 0 0 0 0 0 0 0 0 0 0 0 0 0 0 0 0 0 0 0 0 0 0 0 0
Height
5758 5759 5761 5762 5764 5766 5767 5770 5772 5773 5774 5775 5775 5775 5775 5774 5774 5773 5772 5771 5770 5769 5767 5766 5765 5763 5762 5760 5759 5757 5755 5754 5753 5751 5750 5750 5750 5750 5751 5752 5753 5754 5756
5746 5748 5750 5751 5753 5755 5757 5759 5761 5763 5764 5765 5765 5765 5765 5765 5765 5764 5764 5763 5762 5760 5759 5758 5757 5756 5755 5754 5752 5751 5749 5748 5747 5745 5744 5743 5742 5743 5743 5744 5745 5746 5748
5736 5738 5740 5742 5744 5746 5748 5750 5752 5753 5755 5756 5756 5756 5756 5756 5756 5755 5755 5754 5753 5752 5751 5750 5749 5748 5747 5746 5745 5743 5742 5741 5740 5739 5738 5737 5736 5736 5736 5737 5738 5739 5741
5727 5729 5731 5733 5735 5737 5739 5741 5743 5745 5746 5747 5748 5748 5748 5748 5747 5746 5746 5745 5744 5743 5742 5742 5740 5740 5739 5737 5736 5736 5735 5734 5734 5733 5732 5731 5731 5731 5731 5731 5732 5733 5734
5719 5721 5722 5725 5727 5729 5731 5733 5735 5737 5738 5739 5739 5739 5739 5739 5739 5738 5737 5737 5736 5735 5734 5733 5731 5731 5730 5729 5728 5727 5726 5726 5725 5725 5725 5725 5725 5725 5725 5726 5726 5727 5728
5712 5714 5716 5718 5720 5722 5724 5726 5727 5729 5730 5730 5731 5731 5731 5731 5731 5730 5729 5729 5727 5726 5725 5724 5722 5721 5720 5719 5718 5717 5717 5716 5716 5716 5716 5717 5717 5718 5718 5719 5719 5720 5722
5707 5709 5710 5712 5714 5715 5717 5718 5720 5721 5722 5722 5723 5723 5723 5723 5723 5722 5721 5721 5719 5718 5716 5715 5713 5712 5710 5709 5708 5707 5706 5706 5706 5706 5706 5707 5708 5709 5710 5711 5712 5713 5714
5702 5704 5705 5706 5708 5709 5711 5712 5713 5714 5715 5715 5716 5716 5716 5716 5715 5715 5714 5713 5711 5709 5708 5706 5704 5702 5701 5699 5697 5696 5696 5695 5695 5695 5695 5696 5697 5698 5700 5701 5703 5704 5706
5698 5699 5700 5701 5703 5704 5705 5706 5707 5708 5708 5709 5709 5710 5710 5709 5709 5708 5707 5705 5703 5702 5700 5698 5696 5694 5692 5689 5688 5686 5685 5684 5683 5683 5683 5684 5685 5687 5688 5690 5692 5695 5696
5694 5695 5696 5697 5698 5699 5699 5700 5701 5702 5703 5704 5704 5705 5704 5704 5703 5702 5700 5699 5697 5695 5693 5690 5688 5685 5683 5680 5678 5676 5675 5673 5673 5672 5672 5672 5673 5674 5676 5679 5681 5683 5686
5691 5691 5692 5693 5693 5694 5695 5696 5697 5698 5698 5699 5699 5699 5699 5698 5697 5696 5695 5693 5691 5688 5686 5683 5680 5677 5675 5672 5670 5668 5666 5664 5663 5662 5662 5662 5662 5663 5664 5666 5668 5671 5674
5688 5688 5689 5689 5690 5690 5691 5692 5693 5694 5695 5695 5695 5695 5695 5694 5693 5691 5689 5687 5684 5682 5679 5676 5672 5669 5666 5664 5661 5659 5657 5655 5654 5652 5652 5651 5652 5652 5653 5654 5656 5658 5661
5686 5686 5686 5687 5687 5687 5688 5689 5690 5690 5691 5691 5691 5691 5690 5689 5688 5686 5684 5681 5678 5675 5672 5668 5665 5662 5659 5656 5653 5650 5648 5646 5644 5643 5642 5641 5641 5642 5642 5643 5644 5646 5648
5684 5684 5684 5684 5684 5685 5685 5686 5687 5687 5687 5688 5687 5687 5686 5685 5683 5681 5678 5675 5672 5669 5666 5662 5659 5655 5652 5648 5645 5642 5639 5637 5635 5633 5632 5631 5631 5631 5632 5633 5634 5635 5637
5682 5682 5682 5682 5682 5682 5683 5683 5683 5684 5684 5684 5683 5682 5681 5680 5678 5676 5673 5670 5667 5663 5660 5656 5653 5649 5645 5642 5638 5635 5632 5629 5627 5624 5623 5621 5621 5621 5621 5622 5623 5624 5626
5679 5679 5679 5679 5679 5679 5679 5680 5680 5680 5680 5679 5679 5678 5677 5675 5673 5671 5668 5665 5662 5658 5655 5651 5647 5644 5640 5636 5632 5629 5625 5622 5619 5616 5614 5612 5611 5610 5611 5611 5612 5613 5615
5675 5675 5675 5675 5675 5675 5676 5676 5676 5676 5675 5675 5674 5673 5672 5670 5668 5666 5663 5660 5657 5654 5650 5646 5643 5639 5635 5631 5627 5622 5618 5615 5612 5608 5606 5604 5602 5600 5600 5600 5601 5602 5603
5670 5670 5670 5670 5671 5671 5671 5671 5671 5670 5670 5669 5669 5668 5666 5665 5663 5660 5658 5655 5652 5649 5645 5642 5638 5634 5629 5625 5621 5617 5612 5608 5605 5601 5598 5596 5593 5591 5590 5589 5590 5590 5591
5663 5664 5664 5665 5665 5665 5665 5665 5665 5665 5664 5664 5663 5662 5661 5659 5657 5655 5653 5650 5647 5644 5641 5637 5633 5628 5624 5620 5615 5611 5606 5602 5598 5594 5591 5588 5586 5583 5581 5580 5579 5579 5580
5656 5656 5657 5658 5658 5659 5659 5659 5659 5658 5658 5658 5657 5656 5655 5653 5652 5650 5647 5645 5642 5639 5635 5631 5627 5623 5618 5614 5609 5604 5600 5595 5591 5587 5584 5581 5578 5575 5573 5571 5570 5569 5569
5647 5648 5649 5650 5651 5651 5652 5652 5652 5652 5651 5651 5650 5650 5649 5648 5646 5644 5642 5639 5636 5633 5629 5626 5622 5617 5612 5607 5602 5598 5593 5588 5584 5580 5576 5573 5570 5567 5564 5562 5560 5559 5559
5639 5639 5640 5641 5642 5643 5644 5644 5644 5644 5644 5644 5643 5643 5642 5641 5639 5638 5635 5633 5630 5627 5623 5620 5615 5611 5606 5601 5596 5591 5586 5581 5577 5573 5569 5565 5562 5559 5556 5553 5551 5550 5549
5630 5631 5631 5632 5633 5634 5635 5636 5636 5637 5637 5636 5636 5636 5635 5634 5633 5631 5629 5627 5624 5621 5617 5613 5609 5604 5599 5594 5589 5584 5579 5574 5570 5565 5561 5558 5554 5551 5547 5545 5543 5541 5539
5622 5622 5623 5623 5624 5625 5626 5627 5628 5628 5629 5628 5628 5628 5628 5627 5626 5624 5622 5620 5617 5614 5610 5606 5602 5597 5593 5588 5582 5577 5572 5567 5562 5558 5554 5550 5546 5542 5539 5536 5534 5532 5530
5614 5614 5615 5615 5615 5616 5617 5618 5619 5620 5620 5620 5620 5620 5620 5619 5618 5617 5615 5613 5610 5607 5603 5600 5595 5591 5586 5580 5575 5570 5565 5560 5555 5550 5546 5542 5538 5534 5531 5528 5525 5523 5521
5605 5606 5607 5607 5607 5608 5608 5609 5610 5611 5612 5612 5613 5612 5612 5611 5610 5609 5607 5605 5603 5600 5596 5593 5588 5584 5579 5573 5568 5563 5557 5552 5547 5543 5538 5534 5530 5527 5523 5520 5517 5515 5512
Wind_Speed
45 44 42 40 40 41 40 39 39 39 39 38 37 36 35 34 33 32 31 30 29 29 28 28 28 27 27 27 26 27 26 27 28 30 31 32 32 31 32 32 31 31 32
41 40 39 37 36 37 38 37 38 38 36 35 34 34 33 32 32 31 30 30 29 29 29 29 29 29 28 28 27 27 26 26 26 26 27 27 27 28 29 29 28 28 29
35 35 35 35 34 33 33 34 34 34 33 33 32 32 31 31 31 30 30 30 30 30 30 30 31 31 30 30 29 29 28 27 25 24 24 24 23 24 25 25 25 25 25
32 33 33 31 30 30 31 31 30 30 30 30 31 30 30 30 30 30 30 30 30 31 31 31 32 32 32 32 32 31 31 30 28 26 25 24 23 23 22 23 23 23 24
28 29 29 28 28 29 29 28 28 28 28 29 29 29 29 30 30 30 30 31 31 32 32 33 33 34 34 34 34 34 34 33 32 30 29 28 26 25 24 24 24 24 24
24 24 25 26 26 27 27 27 27 28 28 29 29 29 29 29 30 30 31 31 32 32 33 33 33 34 35 35 35 36 36 36 36 34 33 31 30 29 28 27 26 25 25
23 23 24 24 25 26 26 27 27 27 28 28 28 28 28 28 29 29 30 31 31 32 32 33 33 34 34 35 35 36 37 37 38 38 37 36 34 33 32 31 30 28 28
22 22 23 23 24 24 25 25 25 26 26 26 26 26 26 26 27 27 28 29 29 29 30 30 31 32 33 34 34 35 36 37 38 39 39 39 38 37 35 34 33 31 31
19 20 21 22 22 22 22 22 22 23 23 22 22 22 22 22 23 24 24 24 24 25 26 28 29 30 31 32 33 33 34 35 36 38 39 40 40 40 39 38 37 35 34
16 17 18 19 20 20 19 18 18 18 18 18 18 18 19 19 20 20 21 22 23 24 25 26 28 29 30 30 31 32 32 33 34 35 36 38 39 40 40 40 40 39 39
13 13 14 15 15 16 16 15 15 15 15 15 15 16 16 16 17 18 19 21 22 24 25 26 27 28 29 30 30 30 30 31 31 32 33 35 36 37 38 40 41 41 41
10 10 11 11 11 12 13 13 13 13 13 13 14 14 14 15 16 17 18 20 22 24 25 27 28 29 30 30 30 30 30 30 30 30 31 32 33 34 36 37 39 41 43
8 8 9 9 10 11 11 11 12 12 12 12 13 13 14 14 15 16 18 20 22 24 26 27 28 29 29 29 30 30 30 30 30 30 31 31 31 32 33 34 36 38 41
7 8 9 9 9 10 10 11 11 12 12 12 13 13 13 14 15 17 19 21 23 24 25 26 26 26 26 27 27 28 28 29 29 30 30 31 31 31 32 32 34 35 38
9 9 9 10 10 10 11 11 12 12 12 13 13 13 14 15 16 18 20 21 22 24 25 25 25 25 25 26 26 26 26 27 28 28 29 29 30 31 32 32 33 34 35
10 11 11 11 11 12 12 13 13 13 13 13 13 14 14 15 17 18 20 21 23 24 25 25 25 25 25 26 26 26 26 26 26 27 27 28 29 30 31 32 33 34 35
13 13 13 13 13 13 14 14 14 14 14 14 14 14 15 16 17 18 20 22 23 24 25 25 25 26 26 27 27 28 27 26 26 26 26 26 27 28 29 31 33 34 35
17 16 15 15 15 15 15 16 16 16 15 15 15 15 15 16 17 18 20 22 23 24 25 25 26 27 27 28 28 28 28 28 27 26 25 25 25 26 27 29 31 33 35
20 19 19 18 18 18 18 18 17 17 17 17 16 16 16 17 18 19 21 22 24 24 25 26 27 28 28 28 28 28 28 29 28 27 26 26 25 25 25 26 28 30 32
22 22 21 21 21 20 20 20 19 19 19 18 18 17 17 18 19 20 22 23 24 25 26 26 28 29 29 29 29 29 29 29 29 28 27 26 26 26 25 26 26 28 30
24 24 23 23 22 22 22 21 21 21 20 20 19 19 18 19 20 21 23 24 25 25 27 28 29 30 31 31 31 31 31 30 29 28 27 27 27 27 26 25 26 26 28
24 24 25 25 24 24 23 23 22 22 22 21 21 21 20 20 21 22 23 25 25 27 28 30 31 31 33 33 34 33 33 32 30 29 29 28 28 27 26 26 25 26 26
22 23 24 25 26 25 24 24 23 23 23 22 22 22 22 22 22 23 24 25 26 27 28 30 32 33 34 35 36 35 34 33 32 31 30 30 29 28 27 26 26 25 26
22 22 22 24 25 25 25 25 24 24 23 23 22 23 23 23 23 23 24 25 26 27 29 31 33 34 35 36 37 36 35 34 33 32 31 31 30 29 28 26 26 26 25
22 22 22 23 23 24 25 24 24 24 24 23 23 23 24 24 24 24 24 25 26 27 29 31 33 35 36 37 37 37 36 35 33 32 32 31 30 29 28 27 26 25 25
24 23 22 22 22 22 23 24 24 23 23 23 23 24 24 24 24 24 24 24 26 28 30 32 34 35 37 37 38 38 37 36 34 33 32 31 29 28 28 27 26 25 24
Wind_Direction
266 264 263 264 263 261 259 260 262 266 268 270 271 272 274 276 277 278 279 279 280 280 280 280 281 282 283 286 287 285 284 283 282 277 275 270 265 263 264 262 258 254 251
262 259 259 260 260 258 257 258 260 263 265 267 270 272 273 274 275 276 276 277 277 277 277 277 277 278 279 282 284 286 287 286 284 281 277 272 265 261 260 259 255 251 250
254 253 253 255 255 254 255 257 259 261 263 266 269 270 271 272 274 275 275 275 275 276 276 276 276 276 276 277 279 280 282 283 283 283 279 275 270 265 260 255 251 250 249
250 250 250 250 251 252 253 255 257 260 263 265 267 269 270 272 274 275 275 275 275 276 276 276 277 276 275 275 275 275 276 277 277 278 277 275 271 267 265 258 253 253 251
247 247 247 249 251 253 255 256 258 260 262 264 266 268 270 273 274 275 275 276 276 276 276 276 276 276 276 275 274 273 273 273 272 272 272 271 268 266 264 262 260 258 256
249 250 251 252 254 255 256 257 259 261 263 266 268 269 272 274 275 276 277 278 278 279 279 279 279 278 276 275 273 272 271 270 270 269 267 266 265 264 262 261 259 258 257
256 255 255 256 256 256 258 259 261 263 266 267 269 271 274 276 277 278 280 281 282 283 282 282 282 281 279 278 276 273 270 269 268 267 265 263 262 260 259 258 257 256 256
261 259 258 258 259 261 262 262 262 264 267 269 270 274 276 279 281 282 284 285 286 286 286 286 286 285 284 282 279 277 273 270 268 266 264 262 261 259 258 256 255 254 254
265 261 259 260 261 264 264 264 265 266 269 271 274 276 279 281 284 287 290 291 291 292 292 291 290 289 288 287 285 282 278 275 270 267 264 262 260 259 256 254 252 251 250
270 264 262 263 263 263 263 264 265 266 268 271 275 278 281 285 288 291 294 296 297 298 297 296 295 294 292 290 288 285 282 279 275 271 268 265 262 259 257 254 252 249 247
275 271 266 263 260 259 261 263 264 265 268 271 276 279 283 287 291 295 298 300 301 300 300 300 300 298 296 294 291 288 286 283 279 275 272 269 265 262 258 255 252 249 247
278 273 268 265 261 259 260 261 261 264 269 272 276 280 285 291 295 299 302 304 304 304 305 304 303 302 300 297 293 289 287 284 281 278 274 271 267 265 262 258 255 251 248
283 276 272 270 267 263 260 260 262 266 269 272 277 283 288 294 299 303 307 309 311 312 312 312 310 307 304 301 297 293 290 287 284 281 277 273 269 266 264 261 258 254 250
290 284 279 273 269 265 263 264 266 268 270 274 279 284 291 298 304 309 314 317 319 320 319 318 316 314 311 309 306 301 296 291 287 285 281 276 271 268 265 262 259 257 254
288 284 280 273 269 267 266 268 269 271 273 277 282 286 294 302 309 314 318 322 324 324 324 322 320 319 317 315 314 311 306 300 294 290 286 282 276 271 267 263 260 258 256
282 281 279 276 274 272 272 271 272 274 277 281 285 290 296 305 312 317 321 324 326 326 326 325 323 322 321 319 317 315 311 307 303 296 291 287 282 276 270 265 262 259 258
274 276 276 276 275 275 274 273 275 277 279 283 286 292 298 305 312 317 321 325 327 327 326 326 325 324 322 320 319 318 316 313 309 304 299 293 288 282 274 268 263 260 257
268 269 270 271 271 272 274 275 275 277 279 282 285 290 296 303 310 316 320 323 325 326 326 326 326 326 325 323 321 320 318 317 314 310 305 301 296 290 282 274 267 262 259
263 264 265 266 268 270 272 273 274 276 278 280 283 287 294 301 306 311 315 318 321 324 325 326 327 328 327 326 324 322 320 319 316 313 309 305 300 296 290 282 274 268 263
261 261 262 263 264 266 268 269 271 274 277 279 281 285 291 297 301 307 311 314 318 321 324 326 327 328 328 328 327 324 322 320 318 315 312 309 305 301 295 289 281 274 268
260 259 259 261 262 263 264 266 268 271 274 276 278 282 287 292 297 302 307 311 313 316 320 324 326 328 329 330 328 326 323 321 318 316 314 312 309 305 300 294 288 281 273
262 260 258 258 260 261 262 264 266 268 270 273 275 279 283 287 292 297 302 306 309 312 316 320 323 326 328 328 329 328 326 323 320 317 314 312 311 307 303 299 293 287 281
264 263 260 258 258 258 260 261 263 265 267 270 273 276 280 284 288 293 298 303 308 312 316 319 322 324 326 327 327 327 326 323 321 318 315 314 312 310 306 301 297 292 287
265 266 266 263 260 258 258 258 260 263 265 268 270 274 277 281 285 289 295 301 307 312 316 319 321 323 324 326 326 325 324 323 321 319 317 315 313 311 308 305 300 295 291
267 269 270 269 265 261 259 258 259 261 264 266 269 271 275 278 282 286 292 299 306 312 316 319 321 322 323 324 325 324 323 322 320 319 317 315 314 312 309 307 304 299 295
266 270 273 272 269 264 260 258 259 261 262 265 268 272 276 279 282 286 291 297 304 311 315 318 320 321 322 323 323 323 322 321 320 319 317 316 314 312 310 308 306 302 298